[[{"header":{"parameterUnit":"m.s-1","parameterCategory":1,"la1":30.2991,"la2":30.254,"lo1":-89.0895,"lo2":-89.0444,"dy":0.0017,"dx":0.0017,"nx":28,"ny":28,"refTime":"2025-07-29T21:00:00:Z","depth":0,"parameterNumber":2,"parameterNumberName":"U-component_of_WINDS"},"data":[0,0,0,0,0,0,0,0,0,0,0,0,0,0,0,0,0,0,0,0,0,0,0,0,0,0,0,0,0,0,0,0,0,0,0,0,0,0,0,0,0,0,0,0,0,0,0,0,0,0,0,0,0,0,0,0,0,0,3.7486,3.7487,0,3.7561,3.7562,3.7563,3.7483,3.748,3.7477,3.7474,3.7551,3.7556,3.756,0,0,0,0,0,0,0,0,0,0,0,0,0,3.7271,3.7275,3.7486,3.7487,3.7488,3.7561,3.7562,3.7563,3.7484,3.748,3.7476,3.7472,3.7549,3.7555,3.7561,0,0,0,0,0,0,0,0,0,0,0,0,0,3.7357,3.7277,3.7486,3.7457,3.7455,3.7561,3.7562,3.7564,3.7484,3.748,3.7475,3.7471,3.7547,3.7554,3.7562,3.77,0,0,3.7584,3.7588,0,0,0,0,0,0,0,0,3.7352,3.7365,3.746,3.7459,3.7457,3.7508,3.7515,3.7609,3.7485,3.7473,3.7474,3.7468,3.754,3.7548,3.7572,3.7703,3.7707,3.7585,3.7589,3.7593,3.7595,0,0,0,0,0,0,0,3.7347,3.7362,3.7516,3.7462,3.746,3.7439,3.7447,3.7532,3.7532,3.7474,3.7468,3.7478,3.7539,3.7565,3.7573,3.7708,3.7585,3.7591,3.7596,3.7599,3.7952,3.7957,0,0,0,0,0,0,3.7344,3.7357,3.7514,3.7518,3.7392,3.7447,3.7455,3.7497,3.7531,3.7531,3.7482,3.7474,3.7555,3.7565,3.7576,3.7737,3.7593,3.7599,3.7604,3.7947,3.7953,3.7959,0,0,0,0,0,0,3.734,3.7359,3.751,3.7436,3.7454,3.7456,3.7503,3.75,3.7527,3.7537,3.7536,3.751,3.7552,3.7565,3.7669,3.7738,3.7603,3.761,3.7941,3.7949,3.7956,3.8062,0,0,0,0,0,0,3.7334,3.7358,3.7411,3.7438,3.7458,3.7603,3.7507,3.7505,3.754,3.753,3.7563,3.7563,3.7549,3.7658,3.7676,3.7746,3.7615,3.7935,3.7945,3.7953,3.8052,3.8072,3.8089,0,0,0,0,0,3.7327,3.7439,3.7414,3.7433,3.7525,3.7607,3.7619,3.76,3.7546,3.7599,3.7604,3.7562,3.7728,3.7669,3.7689,3.7762,3.793,3.7942,3.7953,3.8044,3.8068,3.8088,0,0,0,0,0,0,3.742,3.7442,3.7415,3.7539,3.7572,3.7594,3.766,3.7627,3.7676,3.7665,3.764,3.7648,3.7756,3.777,3.7704,3.7896,3.782,3.7836,3.7883,3.7906,3.7924,3.7918,3.7621,0,0,0,0,0,3.7456,3.7521,3.7536,3.7644,3.7662,3.7659,3.7694,3.7676,3.7709,3.7723,3.7736,3.777,3.7829,3.7868,3.7924,3.8054,3.8058,3.8114,3.8132,3.8147,3.816,3.8227,3.8251,3.7995,3.7995,3.7995,0,0,3.7529,3.7549,3.7592,3.7664,3.7687,3.7754,3.7671,3.7746,3.7795,3.7734,3.7831,3.7843,3.7878,3.7994,3.8047,3.8009,3.8232,3.8162,3.8174,3.8178,3.8241,3.8265,3.8286,3.8003,3.8001,3.8,0,0,3.7696,3.7719,3.781,3.7835,3.7871,3.7867,3.7889,3.7915,3.792,3.8017,3.7972,3.803,3.8133,3.8159,3.8186,3.8361,3.8322,3.8379,3.8475,3.854,3.856,3.8578,3.8637,3.8659,3.8393,3.8393,3.8393,0,3.7782,3.7883,3.7861,3.7939,3.797,3.7918,3.8008,3.8033,3.8086,3.8108,3.8066,3.8192,3.8213,3.8332,3.8375,3.84,3.8422,3.8375,3.8559,3.8577,3.8593,3.8649,3.8672,3.84,3.8399,3.8398,3.8398,0,3.7985,3.8055,3.8124,3.8175,3.8215,3.8299,3.8288,3.8331,3.831,3.831,3.8408,3.8431,3.8488,3.8516,3.8497,3.8633,3.8608,3.8563,3.8486,3.8624,3.8676,3.8698,3.8409,3.8407,3.8405,3.8403,0,0,3.8214,3.825,3.8275,3.8296,3.8331,3.8384,3.8465,3.8521,3.8556,3.8594,3.8659,3.8747,3.8705,3.8735,3.8718,3.8776,3.8908,3.8723,3.8723,3.8754,3.9056,3.9087,3.9113,3.8884,3.8888,3.8891,3.9052,0,3.8379,3.8519,3.8501,3.8634,3.8696,3.8646,3.8716,3.8744,3.8747,3.8799,3.8802,3.8863,3.8804,3.8822,3.8876,3.8881,3.8968,3.8869,3.8943,3.8945,3.8933,3.9141,3.9175,3.9325,3.9072,3.9076,3.9078,0,3.8591,3.8635,3.8774,3.8797,3.8822,3.8885,3.8933,3.8985,3.9015,3.9012,3.9045,3.9017,3.9096,3.902,3.9127,3.906,3.9089,3.9095,3.91,3.9105,3.9019,3.9148,3.9373,3.9394,3.9111,3.9108,3.9106,0,3.874,3.8834,3.8929,3.8949,3.8978,3.9023,3.9037,3.9063,3.9096,3.9138,3.9159,3.921,3.9237,3.9277,3.9263,3.9209,3.9372,3.9295,3.937,3.937,3.9405,3.9402,3.9635,3.9428,3.9428,3.9427,3.9427,0,3.8925,3.9012,3.8995,3.9053,3.9148,3.9126,3.922,3.9228,3.925,3.9308,3.9269,3.9323,3.9302,3.9356,3.9345,3.9433,3.9447,3.9446,3.9441,3.9448,3.9448,3.9465,3.9453,3.9433,3.9432,3.9431,3.943,0,3.9107,3.91,3.9199,3.9218,3.9224,3.9293,3.9309,3.9362,3.9361,3.9434,3.945,3.9448,3.9508,3.9498,3.9565,3.9558,3.9667,3.9652,3.9657,3.9652,3.9727,3.9719,3.9977,4.0008,3.9784,3.9786,3.9788,0,3.9224,3.9289,3.9315,3.935,3.9367,3.9425,3.9458,3.9439,3.9475,3.9513,3.9561,3.9618,3.9661,3.976,3.9763,3.9814,3.9797,3.9884,3.9805,3.9808,3.9795,3.979,3.9795,3.9899,3.9902,3.9904,3.9906,0,3.9432,3.9425,3.9475,3.9523,3.9563,3.9601,3.9634,3.9665,3.9647,3.969,3.975,3.9784,3.9852,3.9907,3.9954,3.9967,3.9933,3.9931,3.995,3.9956,3.9955,3.9954,3.9697,3.9925,3.9923,3.9921,3.992,3.992,3.9583,3.9637,3.9663,3.9719,3.9741,3.9772,3.9822,3.9827,3.9877,3.9929,3.9915,3.9983,4.0009,4.0068,4.0086,4.0138,4.0106,4.0135,4.0142,4.0149,4.0156,3.9949,4.0147,4.0147,4.0146,4.0146,4.0145,0,3.9786,3.98,3.9852,3.9898,3.9942,3.9906,3.994,3.9978,4.0038,4.0065,4.0109,4.0177,4.023,4.0238,4.0288,4.0328,4.0313,4.0341,4.0337,4.034,4.0184,4.016,4.0352,4.0352,4.0352,4.0352,4.0352,4.0352,3.9897,3.9986,3.9981,4.0079,4.0092,4.0158,4.018,4.0208,4.0229,4.0306,4.035,4.0354,4.0373,4.0424,4.047,4.0471,4.049,4.0524,4.0518,4.0372,4.0351,4.0331,4.0309,4.0529,4.0529,4.0669,4.067,4.0671]},{"header":{"parameterUnit":"m.s-1","parameterCategory":1,"la1":30.2991,"la2":30.254,"lo1":-89.0895,"lo2":-89.0444,"dy":0.0017,"dx":0.0017,"nx":28,"ny":28,"refTime":"2025-07-29T21:00:00:Z","depth":0,"parameterNumber":3,"parameterNumberName":"V-component_of_WINDS"},"data":[0,0,0,0,0,0,0,0,0,0,0,0,0,0,0,0,0,0,0,0,0,0,0,0,0,0,0,0,0,0,0,0,0,0,0,0,0,0,0,0,0,0,0,0,0,0,0,0,0,0,0,0,0,0,0,0,0,0,3.0978,3.0979,0,3.1044,3.1044,3.1045,3.1004,3.1002,3.1,3.0998,3.1062,3.1066,3.1069,0,0,0,0,0,0,0,0,0,0,0,0,0,3.0814,3.0817,3.0978,3.0979,3.098,3.1043,3.1044,3.1045,3.1004,3.1002,3.0999,3.0997,3.1061,3.1065,3.1069,0,0,0,0,0,0,0,0,0,0,0,0,0,3.0883,3.0818,3.0978,3.0967,3.0967,3.1043,3.1044,3.1045,3.1004,3.1002,3.0999,3.0996,3.106,3.1065,3.107,3.1161,0,0,3.1086,3.1088,0,0,0,0,0,0,0,0,3.0879,3.0889,3.0968,3.0968,3.0968,3.1013,3.101,3.1084,3.1005,3.099,3.0998,3.0994,3.1048,3.1054,3.1072,3.1164,3.1166,3.1087,3.109,3.1092,3.1094,0,0,0,0,0,0,0,3.0874,3.0886,3.1004,3.0969,3.0969,3.0957,3.0964,3.1024,3.1034,3.0991,3.0988,3.0997,3.1047,3.1067,3.1074,3.1167,3.1086,3.1091,3.1094,3.1096,3.1333,3.1336,0,0,0,0,0,0,3.0871,3.0882,3.1002,3.1006,3.0915,3.0963,3.097,3.1001,3.1034,3.1036,3.0999,3.0995,3.106,3.1068,3.1076,3.1182,3.1092,3.1097,3.11,3.133,3.1334,3.1337,0,0,0,0,0,0,3.0867,3.0882,3.0999,3.0943,3.0957,3.0969,3.1004,3.1004,3.1024,3.104,3.1041,3.1018,3.1058,3.1068,3.1139,3.1184,3.1099,3.1104,3.1327,3.1331,3.1336,3.1397,0,0,0,0,0,0,3.0863,3.0881,3.0917,3.0944,3.0961,3.1063,3.1006,3.1007,3.1034,3.1028,3.1058,3.106,3.1056,3.1132,3.1145,3.119,3.1108,3.1323,3.1329,3.1334,3.1391,3.1404,3.1414,0,0,0,0,0,3.0857,3.0931,3.0919,3.0933,3.1005,3.1066,3.1075,3.107,3.1037,3.1072,3.1082,3.1059,3.1177,3.1139,3.1154,3.1201,3.132,3.1327,3.1334,3.1386,3.1401,3.1414,0,0,0,0,0,0,3.0908,3.0935,3.0921,3.1007,3.1034,3.1059,3.1103,3.1087,3.1124,3.1117,3.1109,3.1116,3.119,3.1202,3.116,3.1289,3.1243,3.1253,3.1278,3.1292,3.1304,3.1299,3.1113,0,0,0,0,0,3.0929,3.0977,3.0997,3.1071,3.1085,3.1092,3.1118,3.1112,3.114,3.1152,3.1166,3.1194,3.1237,3.1265,3.1306,3.1393,3.1398,3.1432,3.1444,3.1453,3.1462,3.1507,3.1522,3.1361,3.136,3.136,0,0,3.0973,3.0994,3.1024,3.1081,3.1102,3.1151,3.1102,3.1156,3.1191,3.1159,3.1227,3.1239,3.1269,3.1348,3.1383,3.1361,3.1507,3.1462,3.1469,3.1473,3.1516,3.1531,3.1544,3.1365,3.1364,3.1364,0,0,3.1078,3.1099,3.1162,3.1184,3.1216,3.1219,3.1234,3.1261,3.1268,3.1336,3.1313,3.1354,3.1429,3.145,3.1471,3.1583,3.1562,3.1596,3.1655,3.1699,3.1712,3.1723,3.1761,3.1775,3.1605,3.1605,3.1605,0,3.1129,3.1202,3.1196,3.1251,3.1276,3.125,3.1312,3.1333,3.1377,3.1394,3.1368,3.146,3.1479,3.1561,3.1588,3.1607,3.1622,3.1593,3.1711,3.1722,3.1732,3.1769,3.1783,3.1609,3.1608,3.1608,3.1608,0,3.1262,3.1313,3.1359,3.1402,3.1432,3.1491,3.1492,3.1523,3.1514,3.152,3.1588,3.1609,3.1653,3.1672,3.1664,3.1753,3.1738,3.1712,3.1665,3.1752,3.1785,3.18,3.1614,3.1613,3.1612,3.1611,0,0,3.1401,3.1439,3.1456,3.1475,3.1507,3.1546,3.1602,3.1646,3.1672,3.1702,3.1748,3.1811,3.1787,3.181,3.1804,3.1843,3.1928,3.1811,3.1812,3.1831,3.2026,3.2045,3.2061,3.1914,3.1917,3.1919,3.2023,0,3.1507,3.1607,3.1602,3.1695,3.174,3.1715,3.1764,3.1789,3.1795,3.1834,3.1841,3.1885,3.185,3.1864,3.1901,3.191,3.1966,3.1902,3.1956,3.1958,3.1949,3.2079,3.21,3.2197,3.2036,3.2039,3.204,0,3.1644,3.1679,3.1777,3.1801,3.182,3.1865,3.1903,3.1941,3.1967,3.1969,3.1995,3.1982,3.2037,3.1989,3.2064,3.2021,3.2042,3.2049,3.2053,3.2057,3.2004,3.2086,3.2228,3.2242,3.2061,3.206,3.2058,0,3.1735,3.1806,3.1873,3.189,3.1921,3.1952,3.1966,3.199,3.2015,3.2048,3.2064,3.2103,3.2125,3.2154,3.2151,3.2117,3.2227,3.2179,3.2229,3.2229,3.2253,3.2251,3.2399,3.2268,3.2268,3.2268,3.2267,0,3.1853,3.1913,3.1914,3.1955,3.2021,3.2015,3.208,3.209,3.2111,3.2153,3.2133,3.2172,3.2166,3.2205,3.2203,3.2265,3.2275,3.2276,3.2275,3.2278,3.2278,3.2291,3.2284,3.2271,3.2271,3.227,3.2269,0,3.1965,3.1968,3.2039,3.2062,3.2069,3.2117,3.2136,3.2174,3.2178,3.2231,3.2243,3.225,3.2294,3.2294,3.2345,3.2343,3.2418,3.241,3.241,3.2408,3.2456,3.2451,3.2618,3.2639,3.2495,3.2497,3.2498,0,3.204,3.2086,3.2113,3.214,3.2156,3.2199,3.2225,3.222,3.2248,3.228,3.2314,3.2357,3.2391,3.2463,3.2471,3.251,3.2501,3.2557,3.2507,3.2507,3.25,3.2497,3.2501,3.2566,3.2568,3.2569,3.257,0,3.2172,3.2171,3.221,3.2249,3.2281,3.2311,3.2339,3.2362,3.2359,3.2391,3.2436,3.2463,3.2514,3.2556,3.2593,3.2605,3.2587,3.2586,3.2599,3.2602,3.26,3.2601,3.2435,3.2582,3.2581,3.258,3.2579,3.2579,3.2267,3.2306,3.2331,3.2375,3.2395,3.2421,3.2458,3.2466,3.2505,3.2547,3.2541,3.2591,3.2614,3.2662,3.2678,3.2716,3.2696,3.2716,3.2721,3.2725,3.273,3.2595,3.2723,3.2722,3.2722,3.2722,3.2721,0,3.2398,3.2412,3.2452,3.2492,3.2525,3.2506,3.2535,3.2564,3.2609,3.2633,3.2666,3.2718,3.2758,3.2769,3.2808,3.2836,3.2829,3.2846,3.2844,3.2847,3.2746,3.273,3.2852,3.2852,3.2852,3.2852,3.2852,3.2852,3.2469,3.2533,3.2535,3.2608,3.2622,3.2672,3.269,3.2714,3.2732,3.2791,3.2824,3.2832,3.285,3.289,3.2925,3.2927,3.2942,3.2963,3.2962,3.2867,3.2854,3.2842,3.2827,3.2966,3.2967,3.3059,3.306,3.306]}]]